Welcome to the New NWS' Forecast!
Most changes are behind the scenes, but click here for differences you might notice.
Latest weather observations around

Craig Field / Selma (KSEM)

Using English Units (Switch to International System of Units)
Date/ Time (CDT) Wind (mph) Vis. (mi) Weather Sky Cond. Temp (°F) Rel. Humidity Wind Chill (°F) Heat Index (°F) Pressure Precip. (in)
Air Dwpt 6 hour Altimeter (inHg) Sea level (inHg) 1 hr 3 hr 6 hr
Max Min
Aug 17 04:15 Calm 10 Cloudy OVC007 73 72     94%   75 30.05        
Aug 17 03:55 Calm 10 Cloudy OVC007 73 72     94%   75 30.05        
Aug 17 03:35 Calm 10 Cloudy BKN003 OVC007 73 73     100%   75 30.05        
Aug 17 03:15 W 5 7 Mostly Cloudy BKN003 73 72     94%   75 30.05        
Aug 17 02:55 Calm 10 Partly Cloudy SCT003 SCT110 73 72     94%   75 30.05        
Aug 17 02:35 Calm 10 Mostly Cloudy BKN004 BKN110 73 72     94%   75 30.05        
Aug 17 02:15 Calm 10 Clear CLR 73 72     94%   75 30.05        
Aug 17 01:55 Calm 10 Clear CLR 73 72     94%   75 30.04        
Aug 17 01:35 Calm 10 Clear CLR 73 72     94%   75 30.04        
Aug 17 00:55 Calm 10 Clear CLR 75 72     89%   77 30.04        
Aug 17 00:35 Calm 10 Clear CLR 75 73     94%   77 30.03        
Aug 17 00:15 SSE 3 10 Clear CLR 75 73     94%   77 30.04        
Aug 16 23:55 S 5 10 Clear CLR 75 73     94%   77 30.04        
Aug 16 23:35 S 6 10 Clear CLR 75 73     94%   77 30.04        
Aug 16 23:15 SSE 7 10 Mostly Clear FEW120 75 73     94%   77 30.05        
Aug 16 22:55 S 5 10 Mostly Cloudy BKN110 75 73     94%   77 30.06        
Aug 16 22:35 SSE 5 10 Mostly Clear FEW100 FEW120 77 73     89%   79 30.07        
Aug 16 22:15 SW 3 10 Clear CLR 77 73     89%   79 30.07        
Aug 16 21:55 WSW 3 10 Clear CLR 77 72     83%   78 30.07        
Aug 16 21:35 W 8 10 Partly Cloudy FEW045 FEW060 SCT070 79 72     79%   82 30.08        
Aug 16 21:15 WSW 10 10 Mostly Cloudy FEW044 SCT049 BKN055 79 72     79%   82 30.09        
Aug 16 20:55 SW 7 10 Mostly Clear FEW055 81 73     79%   85 30.07        
Aug 16 20:35 SW 9 10 Mostly Clear FEW070 FEW080 81 75     84%   86 30.06        
Aug 16 20:15 WSW 9 10 Mostly Clear FEW040 FEW075 82 75     79%   89 30.05        
Aug 16 19:55 WSW 9 10 Mostly Clear FEW038 81 77     89%   87 30.04        
Aug 16 19:35 Calm 10 Clear CLR 82 77     84%   91 30.03        
Aug 16 19:15 Calm 10 Clear CLR 84 77     79%   94 30.02        
Aug 16 18:55 SW 3 10 Clear CLR 84 77     79%   94 30.02        
Aug 16 18:35 Calm 10 Clear CLR 86 75     70%   95 30.02        
Aug 16 18:15 WSW 3 10 Clear CLR 90 73     59%   98 30.01        
Aug 16 17:55 Calm 10 Clear CLR 90 73     59%   98 30.01        
Aug 16 17:35 SW 5 10 Clear CLR 90 73     59%   98 30.01        
Aug 16 17:15 WSW 5 10 Clear CLR 90 73     59%   98 30        
Aug 16 16:55 Calm 10 Clear CLR 91 73     56%   101 30.01        
Aug 16 16:35 3 10 Clear CLR 90 73     59%   98 30.01        
Aug 16 16:15 S 3 10 Mostly Clear FEW038 91 73     56%   101 30.01        
Aug 16 15:55 Calm 10 Partly Cloudy SCT038 91 73     56%   101 30.01        
Aug 16 15:35 Calm 10 Clear CLR 90 73     59%   98 30.01        
Aug 16 15:15 W 5 10 Mostly Clear FEW034 90 73     59%   98 30.02        
Aug 16 14:55 Calm 10 Clear CLR 90 73     59%   98 30.02        
Aug 16 14:35 Calm 10 Mostly Clear FEW033 91 73     56%   101 30.03        
Aug 16 14:15 7 10 Mostly Clear FEW033 90 73     59%   98 30.04        
Aug 16 13:55 Calm 10 Clear CLR 90 73     59%   98 30.05        
Aug 16 13:35 Calm 10 Mostly Clear FEW028 FEW034 90 75     63%   100 30.06        
Aug 16 13:15 5 10 Partly Cloudy SCT028 88 73     62%   96 30.07        
Aug 16 12:55 6 10 Partly Cloudy SCT026 SCT031 88 73     62%   96 30.08        
Aug 16 12:35 6 10 Mostly Clear FEW024 88 75     66%   98 30.08        
Aug 16 12:15 6 10 Mostly Clear FEW021 86 73     66%   93 30.09        
Aug 16 11:55 WSW 5 10 Mostly Cloudy BKN020 86 75     70%   95 30.09        
Aug 16 11:35 W 7 10 Partly Cloudy SCT018 86 75     70%   95 30.1        
Aug 16 11:15 5 10 Partly Cloudy SCT016 84 75     74%   92 30.1        
Aug 16 10:55 6 10 Clear CLR 84 75     74%   92 30.1        
Aug 16 10:35 W 6 10 Partly Cloudy SCT013 81 73     79%   85 30.1        
Aug 16 10:15 6 10 Partly Cloudy SCT012 81 75     84%   86 30.1        
Aug 16 09:55 Calm 9 Partly Cloudy SCT011 81 75     84%   86 30.1        
Aug 16 09:35 Calm 10 Mostly Cloudy BKN011 79 73     84%   82 30.09        
Aug 16 09:15 SW 7 10 Mostly Cloudy BKN011 79 75     89%   82 30.09        
Aug 16 08:55 W 6 10 Mostly Cloudy SCT007 BKN012 79 75     89%   82 30.09        
Aug 16 08:35 SW 5 10 Mostly Cloudy BKN006 BKN011 79 75     89%   82 30.09        
Aug 16 08:15 Calm 10 Cloudy OVC004 77 75     94%   79 30.09        
Aug 16 07:55 Calm 10 Cloudy OVC004 75 73     94%   77 30.09        
Aug 16 07:35 Calm 10 Cloudy OVC004 75 73     94%   77 30.08        
Aug 16 07:15 Calm 10 Cloudy OVC004 75 73     94%   77 30.08        
Aug 16 06:55 Calm 10 Mostly Cloudy BKN005 75 73     94%   77 30.08        
Aug 16 06:35 Calm 10 Mostly Clear FEW005 75 73     94%   77 30.07        
Aug 16 06:15 Calm 10 Clear CLR 73 72     94%   75 30.06        
Aug 16 05:55 Calm 10 Clear CLR 73 72     94%   75 30.06        
Aug 16 05:35 Calm 10 Clear CLR 73 72     94%   75 30.05        
Aug 16 05:15 SSW 5 10 Clear CLR 73 72     94%   75 30.04        
Aug 16 04:55 Calm 10 Clear CLR 73 73     100%   75 30.04        
Aug 16 04:35 SSW 3 10 Clear CLR 73 72     94%   75 30.03        
Aug 16 04:15 S 3 10 Clear CLR 73 72     94%   75 30.03        
Aug 16 03:55 S 5 8 Mostly Clear FEW002 73 72     94%   75 30.02        
Aug 16 03:35 S 3 8 Clear CLR 73 72     94%   75 30.01        
Aug 16 03:15 Calm 10 Clear CLR 73 72     94%   75 30.01        
Aug 16 02:55 Calm 6 Fog/Mist FEW005 73 72     94%   75 30.01        
Aug 16 02:35 Calm 10 Mostly Cloudy BKN004 73 72     94%   75 30        
Aug 16 02:15 Calm 10 Mostly Cloudy BKN004 75 73     94%   77 30        
Aug 16 01:55 Calm 10 Cloudy OVC005 75 73     94%   77 30        
Aug 16 01:35 ENE 3 10 Mostly Cloudy BKN005 75 73     94%   77 30        
Aug 16 01:15 Calm 10 Mostly Clear FEW006 75 73     94%   77 30        
Aug 16 00:55 NNW 3 10 Clear CLR 73 73     100%   75 29.99        
Aug 16 00:35 S 5 10 Clear CLR 73 73     100%   75 29.99        
Aug 16 00:15 S 5 10 Clear CLR 73 73     100%   75 29.99        
Aug 15 23:55 S 5 10 Clear CLR 73 73     100%   75 29.99        
Aug 15 23:35 Calm 10 Clear CLR 73 73     100%   75 29.99        
Aug 15 23:15 SSW 3 9 Clear CLR 73 73     100%   75 29.99        
Aug 15 22:55 Calm 10 Clear CLR 75 73     94%   77 29.99        
Aug 15 22:35 Calm 10 Clear CLR 75 73     94%   77 30        
Aug 15 22:15 S 5 10 Clear CLR 75 73     94%   77 30        
Aug 15 21:55 Calm 10 Clear CLR 75 73     94%   77 30        
Aug 15 21:35 Calm 10 Clear CLR 75 73     94%   77 30.01        
Aug 15 21:15 Calm 10 Clear CLR 75 73     94%   77 30.01        
Aug 15 20:55 Calm 10 Clear CLR 75 73     94%   77 30        
Aug 15 20:35 Calm 10 Mostly Clear FEW014 75 73     94%   77 29.99        
Aug 15 20:15 Calm 10 Mostly Clear FEW014 75 73     94%   77 29.99        
Aug 15 19:55 Calm 10 Mostly Clear FEW043 FEW050 FEW060 75 73     94%   77 29.99        
Aug 15 19:35 Calm 10 Light Rain FEW037 SCT046 BKN050 75 73     94%   77 30        
Aug 15 19:15 Calm 10 Light Rain FEW038 BKN047 BKN060 75 73     94%   77 30        
Aug 15 18:55 Calm 10 Light Rain FEW047 BKN060 BKN090 75 73     94%   77 30        
Aug 15 18:35 Calm 10 Mostly Clear FEW050 FEW070 FEW090 75 73     94%   77 30        
Aug 15 18:15 Calm 10 Mostly Clear FEW005 75 73     94%   77 30        
Aug 15 17:55 S 7 10 Clear CLR 75 73     94%   77 30        
Aug 15 17:35 S 6 10 Light Drizzle FEW033 FEW039 SCT048 75 72     89%   77 29.99        
Aug 15 17:15 ESE 7 7 Light Rain BKN034 BKN042 OVC060 75 72     89%   77 29.99        
Aug 15 16:55 Calm 2 Heavy Rain SCT003 BKN032 OVC040 73 72     94%   75 29.98        
Aug 15 16:35   0.25 Heavy Rain OVC003 73 72     94%   75 29.96        
Aug 15 16:15   3 Light Drizzle FEW022 BKN030 OVC085 75 72     89%   77 29.95        
Aug 15 15:55 SW 6 10 Mostly Cloudy SCT037 SCT075 BKN090 88 73     62%   96 29.93        
Aug 15 15:35 6 10 Mostly Cloudy BKN036 93 73     53%   103 29.92        
Aug 15 15:15 ESE 5 10 Mostly Cloudy BKN035 BKN042 91 75     59%   103 29.92        
Aug 15 14:55 Calm 10 Cloudy BKN036 OVC042 90 75     63%   100 29.93        
Aug 15 14:35 ENE 6 10 Mostly Cloudy BKN035 91 75     59%   103 29.93        
Aug 15 14:15 N 5 10 Partly Cloudy SCT035 91 75     59%   103 29.93        
Aug 15 13:55 Calm 10 Partly Cloudy SCT032 SCT040 91 73     56%   101 29.94        
Aug 15 13:35 3 10 Mostly Cloudy BKN033 BKN041 91 75     59%   103 29.95        
Aug 15 13:15 W 5 10 Partly Cloudy SCT029 SCT034 90 75     63%   100 29.95        
Aug 15 12:55 5 10 Partly Cloudy SCT028 SCT034 90 75     63%   100 29.96        
Aug 15 12:35 NW 6 10 Mostly Clear FEW027 88 75     66%   98 29.97        
Aug 15 12:15 6 10 Partly Cloudy SCT025 88 75     66%   98 29.98        
Aug 15 11:55 3 10 Mostly Clear FEW025 FEW030 88 75     66%   98 29.99        
Aug 15 11:35 WSW 6 10 Partly Cloudy FEW021 SCT028 88 77     70%   100 30        
Aug 15 11:15 5 10 Cloudy BKN019 BKN025 OVC030 86 75     70%   95 30.01        
Aug 15 10:55 WNW 6 10 Mostly Cloudy BKN018 BKN022 84 75     74%   92 30        
Aug 15 10:35 Calm 10 Mostly Cloudy BKN016 84 75     74%   92 30        
Aug 15 10:15 5 10 Partly Cloudy SCT014 82 75     79%   89 30        
Aug 15 09:55 W 3 10 Partly Cloudy SCT012 82 75     79%   89 30        
Aug 15 09:35 WSW 6 10 Partly Cloudy SCT009 SCT014 81 75     84%   86 30        
Aug 15 09:15 7 10 Mostly Cloudy BKN008 BKN013 79 75     89%   82 29.99        
Aug 15 08:55 WNW 5 10 Cloudy BKN006 BKN009 OVC013 79 75     89%   82 30        
Aug 15 08:35 Calm 8 Cloudy BKN003 OVC009 77 75     94%   79 30        
Aug 15 08:15 Calm 4 Fog/Mist OVC003 75 73     94%   77 29.99        
Aug 15 07:55 Calm 3 Fog/Mist OVC003 75 73     94%   77 29.98        
Aug 15 07:35 Calm 1.75 Fog/Mist OVC003 75 73     94%   77 29.97        
Aug 15 07:15 Calm 9 Cloudy OVC003 73 72     94%   75 29.97        
Aug 15 06:55 Calm 9 Cloudy OVC003 73 72     94%   75 29.96        
Aug 15 06:35 Calm 9 Cloudy OVC004 73 72     94%   75 29.95        
Aug 15 06:15 Calm 9 Cloudy OVC004 73 72     94%   75 29.95        
Aug 15 05:55 Calm 10 Cloudy OVC005 72 72     100%   73 29.94        
Aug 15 05:35 Calm 7 Mostly Cloudy BKN005 72 70     94%   73 29.94        
Aug 15 05:15 Calm 6 Fog/Mist FEW006 72 70     94%   73 29.93        
Aug 15 04:55 Calm 6 Fog/Mist BKN006 72 72     100%   73 29.93        
Aug 15 04:35 Calm 9 Clear CLR 73 72     94%   75 29.93        
Aug 15 04:15 Calm 9 Clear CLR 73 72     94%   75 29.93        
Aug 15 03:55 Calm 10 Clear CLR 73 72     94%   75 29.92        
Aug 15 03:35 Calm 10 Clear CLR 73 72     94%   75 29.92        
Aug 15 03:15 Calm 10 Clear CLR 73 72     94%   75 29.92        
Aug 15 02:55 Calm 10 Clear CLR 73 72     94%   75 29.91        
Aug 15 02:35 Calm 10 Clear CLR 73 72     94%   75 29.92        
Aug 15 02:15 S 3 10 Clear CLR 73 72     94%   75 29.92        
Aug 15 01:55 Calm 10 Clear CLR 73 72     94%   75 29.92        
Aug 15 01:35 Calm 10 Clear CLR 73 73     100%   75 29.92        
Aug 15 01:15 Calm 9 Clear CLR 73 72     94%   75 29.92        
Aug 15 00:55 Calm 10 Clear CLR 75 73     94%   77 29.92        
Aug 15 00:35 SE 5 10 Clear CLR 75 73     94%   77 29.93        
Aug 15 00:15 Calm 10 Clear CLR 75 73     94%   77 29.93        
Aug 14 23:55 Calm 10 Clear CLR 75 73     94%   77 29.93        
Aug 14 23:35 Calm 9 Clear CLR 75 73     94%   77 29.93        
Aug 14 23:15 Calm 10 Clear CLR 77 73     89%   79 29.94        
Aug 14 22:55 Calm 10 Clear CLR 75 73     94%   77 29.94        
Aug 14 22:35 SE 5 10 Clear CLR 75 73     94%   77 29.94        
Aug 14 22:15 Calm 10 Clear CLR 77 73     89%   79 29.94        
Aug 14 21:55 SSE 6 10 Clear CLR 77 75     94%   79 29.95        
Aug 14 21:35 S 3 10 Clear CLR 77 75     94%   79 29.95        
Aug 14 21:15 Calm 10 Clear CLR 77 75     94%   79 29.95        
Aug 14 20:55 Calm 10 Clear CLR 77 75     94%   79 29.94        
Aug 14 20:35 Calm 10 Clear CLR 77 75     94%   79 29.93        
Aug 14 20:15 Calm 10 Clear CLR 79 75     89%   82 29.92        
Aug 14 19:55 SSE 3 10 Clear CLR 79 75     89%   82 29.91        
Aug 14 19:35 Calm 10 Clear   79 75     89%   82 29.91        
Aug 14 19:15 SSE 3 10 Clear   79 75     89%   82 29.91        
Aug 14 18:55 Calm 10 Clear   81 75     84%   86 29.92        
Aug 14 18:35 Calm 10 Clear CLR 81 75     84%   86 29.91        
Aug 14 18:15 Calm 10 Clear CLR 81 75     84%   86 29.91        
Aug 14 17:55 S 5 10 Clear CLR 81 75     84%   86 29.91        
Aug 14 17:35 SSW 7 10 Mostly Clear FEW100 81 75     84%   86 29.91        
Aug 14 17:15 SW 6 10 Mostly Cloudy BKN100 81 75     84%   86 29.91        
Aug 14 16:55 Calm 10 Mostly Cloudy BKN090 81 73     79%   85 29.89        
Aug 14 16:35 NW 6 10 Partly Cloudy SCT095 81 73     79%   85 29.89        
Aug 14 16:15 W 7 10 Partly Cloudy SCT100 81 73     79%   85 29.89        
Aug 14 15:55 WNW 16 10 Mostly Clear FEW110 84 75     74%   92 29.88        
Aug 14 15:35 NNW 13 10 Partly Cloudy SCT110 81 75     84%   86 29.89        
Aug 14 15:15   5 Light Drizzle FEW003 FEW026 SCT042 81 75     84%   86 29.89        
Aug 14 14:55 W 17 10 Mostly Cloudy BKN041 BKN055 BKN065 86 73     66%   93 29.87        
Aug 14 14:35 WSW 6 10 Clear CLR 93 75     56%   105 29.87        
Aug 14 14:15 NW 6 10 Clear CLR 93 73     53%   103 29.88        
Aug 14 13:55 W 7   Clear CLR 93 73     53%   103 29.89        
Aug 14 13:35 SW 7 10 Clear CLR 91 75     59%   103 29.9        
Aug 14 13:15 WSW 5 10 Clear CLR 91 75     59%   103 29.91        
Aug 14 12:55 Calm 10 Light Rain FEW038 FEW055 SCT090 86 77     75%   97 29.92        
Aug 14 12:35 W 10 10 Clear   91 75     59%   103 29.92        
Aug 14 12:15 6 10 Clear   91 75     59%   103 29.93        
Aug 14 11:55 WSW 8 10 Clear   91 75     59%   103 29.93        
Aug 14 11:35 7 10 Mostly Cloudy SCT029 SCT034 BKN040 90 75     63%   100 29.93        
Aug 14 11:15 3 10 Partly Cloudy FEW025 FEW033 SCT039 90 75     63%   100 29.93        
Aug 14 10:55 WSW 6 10 Partly Cloudy SCT024 90 77     67%   103 29.93        
Aug 14 10:35 6 10 Clear CLR 88 77     70%   100 29.93        
Aug 14 10:15 WSW 8 10 Clear CLR 88 77     70%   100 29.93        
Aug 14 09:55 W 7 10 Clear CLR 88 77     70%   100 29.93        
Aug 14 09:35 WSW 8 10 Clear CLR 86 77     75%   97 29.92        
Aug 14 09:15 WSW 7 10 Clear CLR 84 77     79%   94 29.93        
Aug 14 08:55 WSW 9 10 Clear CLR 84 77     79%   94 29.93        
Aug 14 05:55 Calm 10 Clear CLR 73 72     94%   75 29.92        
Aug 14 05:35 Calm 10 Clear CLR 73 72     94%   75 29.92        
Aug 14 05:15 Calm 10 Clear CLR 73 72     94%   75 29.92        
Aug 14 04:35 Calm 9 Clear CLR 73 72     94%   75 29.9        
Aug 14 03:55 Calm 10 Clear CLR 75 73     94%   77 29.9        
Aug 14 03:35 Calm 10 Clear CLR 75 73     94%   77 29.9        
Aug 14 02:55 SE 3 10 Clear CLR 73 73     100%   75 29.89        
Aug 14 02:35 Calm 9 Clear CLR 73 73     100%   75 29.89        
Aug 14 02:15 Calm 9 Clear CLR 73 72     94%   75 29.89        
Aug 14 01:55 ESE 3 10 Clear CLR 73 72     94%   75 29.9        
Aug 14 00:35 Calm 10 Clear CLR 75 73     94%   77 29.92        
Aug 14 00:15 Calm 10 Clear CLR 75 73     94%   77 29.92        
Aug 13 23:35 Calm 10 Clear CLR 75 73     94%   77 29.93        
Aug 13 22:35 Calm 10 Clear CLR 77 75     94%   79 29.94        
Aug 13 22:15 SSE 3 10 Clear CLR 77 75     94%   79 29.94        
Aug 13 21:55 SSE 3 10 Clear CLR 77 75     94%   79 29.94        
Aug 13 21:35 ESE 5 10 Clear CLR 79 75     89%   82 29.93        
Aug 13 21:15 Calm 10 Clear CLR 79 77     94%   83 29.94        
Notice The following observation data may not be complete
Aug 13 20:35   10 Clear CLR          %              
Aug 13 20:15 Calm 10 Clear CLR 81 77     89%   87 29.9        
Aug 13 19:35 Calm 10 Clear CLR 84 77     79%   94 29.9        
Aug 13 19:15 Calm 10 Clear CLR 86 75     70%   95 29.9        
Aug 13 18:35 NW 5 10 Clear CLR 88 73     62%   96 29.91        
Aug 13 18:15 WNW 5 10 Partly Cloudy SCT043 90 72     56%   96 29.91        
Aug 13 17:55 WNW 5 10 Partly Cloudy SCT043 91 72     53%   99 29.9        
Aug 13 17:35 WNW 5 10 Clear CLR 91 72     53%   99 29.9        
Aug 13 17:15 NNW 5 10 Mostly Clear FEW049 FEW055 FEW070 91 72     53%   99 29.9        
Aug 13 16:55 NNE 6 10 Partly Cloudy SCT050 SCT055 91 72     53%   99 29.9        
Aug 13 16:35 5 10 Partly Cloudy FEW048 SCT055 SCT075 93 72     50%   101 29.9        
Aug 13 16:15 NW 6 10 Mostly Clear FEW046 FEW055 93 72     50%   101 29.9        
Aug 13 15:55 WNW 7 10 Clear CLR 91 72     53%   99 29.9        
Aug 13 15:35 NW 8 10 Clear CLR 91 72     53%   99 29.9        
Aug 13 15:15 WNW 8 10 Mostly Clear FEW041 FEW060 93 73     53%   103 29.91        
Aug 13 13:55 NW 7 10 Mostly Clear FEW036 90 73     59%   98 29.93        
Aug 13 13:35 6 10 Mostly Clear FEW034 FEW050 FEW080 90 73     59%   98 29.94        
Notice The following observation data may not be complete
Aug 13 13:15   10 Partly Cloudy FEW030 FEW037 SCT045          %              
Aug 13 12:55 Calm 10 Partly Cloudy FEW032 SCT037 SCT044 90 75     63%   100 29.95        
Aug 13 12:35 5 10 Partly Cloudy SCT031 SCT037 SCT044 90 75     63%   100 29.95        
Aug 13 11:55 5 10 Mostly Clear FEW026 FEW031 FEW050 88 75     66%   98 29.97        
Notice The following observation data may not be complete
Aug 13 11:35   10 Partly Cloudy SCT023 SCT031          %              
Aug 13 10:35 5 10 Mostly Cloudy BKN018 BKN040 86 75     70%   95 29.98        
Aug 13 10:15 3 10 Mostly Cloudy BKN017 BKN026 86 75     70%   95 29.98        
Aug 13 09:55 Calm 10 Cloudy OVC014 86 75     70%   95 29.98        
Aug 13 07:55 Calm 10 Partly Cloudy SCT003 77 75     94%   79 29.97        
Aug 13 07:35 Calm 9 Mostly Clear FEW002 77 75     94%   79 29.97        
Aug 13 06:35 Calm 5 Fog/Mist CLR 73 73     100%   75 29.96        
Aug 13 06:15 Calm 3 Fog/Mist CLR 73 72     94%   75 29.96        
Aug 13 05:35 Calm 6 Fog/Mist BKN029 73 73     100%   75 29.94        
Aug 13 04:15 WNW 3 9 Clear CLR 75 73     94%   77 29.92        
Aug 13 03:55 Calm 6 Fog/Mist CLR 75 73     94%   77 29.92        
Aug 13 03:35 Calm 10 Clear CLR 75 73     94%   77 29.92        
Aug 13 03:15 Calm 10 Clear CLR 75 73     94%   77 29.91        
Aug 13 02:55 Calm 10 Clear CLR 75 73     94%   77 29.91        
Aug 13 02:35 Calm 9 Clear CLR 75 73     94%   77 29.91        
Aug 13 02:15 Calm 6 Fog/Mist CLR 75 73     94%   77 29.91        
Aug 13 01:35 SE 5 7 Clear CLR 75 73     94%   77 29.92        
Aug 13 01:15 Calm 9 Clear CLR 77 75     94%   79 29.92        
Aug 13 00:35 Calm 6 Fog/Mist CLR 77 75     94%   79 29.93        
Aug 13 00:15 SSE 3 9 Clear CLR 77 75     94%   79 29.94        
Aug 12 23:55 SE 3 6 Fog/Mist CLR 77 75     94%   79 29.95        
Notice The following observation data may not be complete
Aug 12 23:35   9 Clear CLR          %              
Aug 12 23:15 Calm 10 Clear CLR 77 75     94%   79 29.96        
Notice The following observation data may not be complete
Aug 12 22:35   10 Clear CLR          %              
Notice The following observation data may not be complete
Aug 12 22:15   10 Clear CLR          %              
Aug 12 21:35 Calm 10 Clear CLR 79 77     94%   83 29.94        
Aug 12 20:15 Calm 10 Clear CLR 82 77     84%   91 29.93        
Notice The following observation data may not be complete
Aug 12 19:35   10 Mostly Cloudy BKN120          %              
Aug 12 18:35 NW 5 10 Clear CLR 88 77     70%   100 29.91        
Aug 12 18:15 NW 5 10 Clear CLR 88 75     66%   98 29.9        
Aug 12 17:55 WNW 5 10 Clear CLR 88 75     66%   98 29.9        
Aug 12 17:15 W 6 10 Clear CLR 88 72     59%   94 29.91        
Aug 12 16:35 6 10 Mostly Clear FEW075 90 73     59%   98 29.92        
Aug 12 16:15 WSW 6 10 Mostly Clear FEW031 90 73     59%   98 29.91        
Aug 12 15:55 WSW 7 10 Mostly Clear FEW031 FEW080 90 73     59%   98 29.91        
Aug 12 15:15 WSW 8 10 Partly Cloudy FEW028 SCT036 SCT043 90 75     63%   100 29.92        
Aug 12 14:55 WSW 6 10 Partly Cloudy FEW027 SCT033 SCT038 88 75     66%   98 29.93        
Notice The following observation data may not be complete
Aug 12 14:35   10 Partly Cloudy SCT026          %              
Aug 12 13:55 W 5 10 Mostly Clear FEW023 86 75     70%   95 29.96        
Aug 12 13:15 SW 6 10 Mostly Clear FEW032 FEW038 86 77     75%   97 29.98        
Notice The following observation data may not be complete
Aug 12 12:35   10 Partly Cloudy SCT025 SCT029          %              
Aug 12 11:35 WSW 5 10 Cloudy OVC013 82 75     79%   89 29.99        
Aug 12 10:15 Calm 10 Cloudy OVC010 81 75     84%   86 29.99        
Aug 12 08:55 Calm 5 Fog/Mist OVC004 77 75     94%   79 29.99        
Notice The following observation data may not be complete
Aug 12 08:15   6 Fog/Mist OVC005          %              
Aug 12 03:15 Calm 10 Cloudy OVC006 77 75     94%   79 29.95        
Aug 12 02:55 Calm 10 Cloudy OVC006 77 75     94%   79 29.95        
Aug 12 02:35 Calm 9 Mostly Cloudy BKN008 73 73     100%   75 29.95        
Aug 12 02:15 Calm 10 Clear CLR 75 73     94%   77 29.94        
Aug 12 01:55 Calm 10 Clear CLR 75 73     94%   77 29.95        
Aug 12 01:35 WSW 3 10 Clear CLR 75 73     94%   77 29.96        
Aug 11 23:55 Calm 10 Clear CLR 77 73     89%   79 29.97        
Notice The following observation data may not be complete
Aug 11 23:15   10 Clear CLR          %              
Notice The following observation data may not be complete
Aug 11 22:15   10 Clear CLR          %              
Aug 11 21:35 S 7 10 Clear CLR 77 75     94%   79 29.99        
Aug 11 21:15 SSW 5 10 Mostly Clear FEW044 FEW065 77 75     94%   79 30        
Aug 11 20:55 Calm 10 Partly Cloudy SCT060 SCT070 79 75     89%   82 30        
Notice The following observation data may not be complete
Aug 11 11:35   10 Cloudy OVC012          %              
Aug 11 11:15 SSW 5 10 Cloudy OVC010 79 73     84%   82 30.1        
Aug 11 10:55 SSW 5 10 Cloudy OVC009 79 73     84%   82 30.1        
Aug 11 09:35 S 3 10 Cloudy BKN007 OVC011 77 73     89%   79 30.11        
Aug 11 09:15 SSW 3 10 Cloudy OVC006 77 73     89%   79 30.11        
Aug 11 08:55 SSE 3 10 Cloudy OVC005 75 73     94%   77 30.1        
Aug 11 08:35 Calm 10 Cloudy OVC004 75 73     94%   77 30.11        
Aug 11 08:15 Calm 10 Cloudy OVC003 75 73     94%   77 30.1        
Aug 11 07:55 Calm 10 Cloudy OVC003 73 73     100%   75 30.1        
Aug 11 07:35 Calm 10 Cloudy OVC003 73 72     94%   75 30.1        
Aug 11 06:35 Calm 0.75 Fog/Mist OVC003 73 72     94%   75 30.09        
Aug 11 06:15 Calm 1.25 Fog/Mist OVC003 73 72     94%   75 30.08        
Aug 11 05:55 Calm 2.5 Fog/Mist OVC003 73 72     94%   75 30.08        
Aug 11 05:35 Calm 3 Fog/Mist OVC003 73 72     94%   75 30.07        
Aug 11 05:15 SSE 3 2.5 Fog/Mist OVC003 73 72     94%   75 30.06        
Aug 11 04:55 Calm 2 Fog/Mist OVC003 73 72     94%   75 30.06        
Aug 11 04:35 Calm 1.25 Fog/Mist OVC003 73 72     94%   75 30.06        
Aug 11 04:15 Calm 0.5 Fog/Mist OVC002 73 72     94%   75 30.06        
Aug 11 03:55 Calm 0.25 Fog OVC002 73 72     94%   75 30.05        
Aug 11 03:35 SSE 3 0.5 Fog/Mist OVC002 73 72     94%   75 30.05        
Aug 11 03:15 Calm 0.5 Fog OVC002 73 72     94%   75 30.05        
Aug 11 02:55 SSE 3 2.5 Fog/Mist OVC003 73 72     94%   75 30.06        
Aug 11 02:35 SSE 5 0.5 Fog/Mist OVC002 73 72     94%   75 30.06        
Aug 11 02:15 SSE 5 0.25 Fog OVC002 73 72     94%   75 30.07        
Aug 11 01:55 SE 3 2 Fog/Mist OVC003 73 72     94%   75 30.07        
Aug 11 01:35 Calm 9 Cloudy OVC003 73 72     94%   75 30.08        
Aug 11 01:15 ESE 5 10 Cloudy OVC003 73 72     94%   75 30.09        
Aug 11 00:55 ESE 3 10 Cloudy OVC003 73 72     94%   75 30.1        
Aug 11 00:35 Calm 10 Cloudy OVC003 73 72     94%   75 30.12        
Aug 11 00:15 Calm 10 Mostly Cloudy BKN003 BKN120 73 72     94%   75 30.12        
Aug 10 23:55 Calm 10 Partly Cloudy FEW003 SCT120 73 72     94%   75 30.12        
Aug 10 23:35 Calm 10 Mostly Clear FEW120 73 72     94%   75 30.11        
Aug 10 23:15 Calm 10 Clear CLR 73 72     94%   75 30.11        
Aug 10 22:55 Calm 10 Clear CLR 73 72     94%   75 30.11        
Aug 10 22:35 SSE 3 10 Mostly Clear FEW006 73 72     94%   75 30.11        
Aug 10 22:15 SE 3 10 Partly Cloudy SCT007 SCT019 73 72     94%   75 30.11        
Aug 10 21:55 Calm 10 Partly Cloudy SCT009 SCT019 SCT085 73 72     94%   75 30.11        
Aug 10 21:35 SSE 3 10 Mostly Cloudy FEW003 BKN008 BKN085 73 72     94%   75 30.11        
Aug 10 21:15 E 3 10 Light Drizzle OVC006 73 72     94%   75 30.11        
Aug 10 20:55 E 5 10 Light Rain OVC005 73 72     94%   75 30.11        
Aug 10 20:35 Calm 6 Light Rain SCT005 BKN029 OVC036 73 72     94%   75 30.12        
Aug 10 20:15 Calm 9 Light Rain BKN006 BKN028 OVC065 73 72     94%   75 30.13        
Aug 10 19:55 Calm 4 Heavy Rain FEW003 SCT027 BKN050 73 72     94%   75 30.13        
Aug 10 19:35 SE 5 10 Mostly Cloudy BKN050 BKN055 73 72     94%   75 30.13        
Aug 10 19:15 W 5 10 Light Rain FEW028 FEW033 SCT055 73 72     94%   75 30.13        
Aug 10 18:55 Calm 9 Light Rain FEW033 BKN040 BKN045 73 72     94%   75 30.12        
Notice The following observation data may not be complete
Aug 10 18:35   7 Rain SCT004 BKN037 OVC044          %              
Aug 10 18:15 WSW 5 1.5 Heavy Rain BKN004 OVC027 73 72     94%   75 30.11        
Aug 10 17:55 WSW 16 1.25 Heavy Rain BKN003 BKN007 OVC027 75 72     89%   77 30.12        
Aug 10 17:35 SSW 7 0.25 Heavy Rain OVC003 75 72     89%   77 30.11        
Aug 10 17:15 SW 14 2.5 Rain SCT003 BKN009 OVC031 75 73     94%   77 30.1        
Aug 10 16:55 SSE 16 0.5 Heavy Rain OVC004 75 73     94%   77 30.06        
Aug 10 16:35 SSE 11 7 Cloudy BKN033 OVC055 77 73     89%   79 30.03        
Aug 10 10:55 Calm 10 Mostly Cloudy SCT020 BKN024 84 75     74%   92 30.15        
Aug 10 10:35 Calm 10 Mostly Cloudy BKN017 84 75     74%   92 30.15        
Aug 10 10:15 Calm 10 Mostly Cloudy BKN016 82 75     79%   89 30.15        
Aug 10 09:55 Calm 10 Partly Cloudy SCT016 82 75     79%   89 30.15        
Aug 10 09:35 Calm 10 Partly Cloudy SCT013 82 75     79%   89 30.14        
Aug 10 09:15 Calm 10 Mostly Cloudy BKN012 81 75     84%   86 30.14        
Aug 10 08:55 Calm 10 Partly Cloudy SCT010 81 75     84%   86 30.14        
Aug 10 08:35 Calm 10 Partly Cloudy SCT006 79 75     89%   82 30.13        
Aug 10 08:15 Calm 10 Mostly Cloudy BKN004 77 73     89%   79 30.13        
Aug 10 07:55 Calm 10 Cloudy OVC004 75 75     100%   77 30.13        
Aug 10 07:35 Calm 10 Cloudy OVC003 75 73     94%   77 30.13        
Aug 10 07:15 Calm 1.75 Fog/Mist OVC003 75 73     94%   77 30.13        
Aug 10 06:55 Calm 0.25 Fog OVC002 73 73     100%   75 30.13        
Aug 10 06:35 Calm 0.25 Fog OVC002 73 73     100%   75 30.12        
Aug 10 06:15 Calm 0.25 Fog OVC002 73 73     100%   75 30.11        
Aug 10 05:55 Calm 1.75 Fog/Mist OVC003 73 73     100%   75 30.1        
Aug 10 05:35 Calm 0.75 Fog/Mist OVC002 73 73     100%   75 30.1        
Aug 10 05:15 Calm 0.5 Fog OVC002 73 73     100%   75 30.09        
Aug 10 04:55 Calm 0.25 Fog OVC002 73 73     100%   75 30.09        
Aug 10 04:35 Calm 3 Fog/Mist OVC003 73 73     100%   75 30.09        
Aug 10 04:15 Calm 10 Cloudy OVC003 73 72     94%   75 30.09        
Aug 10 03:55 NNE 3 10 Cloudy OVC004 73 72     94%   75 30.09        
Aug 10 03:35 Calm 10 Mostly Cloudy BKN005 73 72     94%   75 30.09        
Notice The following observation data may not be complete
Aug 10 03:15   10 Clear CLR          %              
Aug 10 02:55 Calm 9 Clear CLR 73 72     94%   75 30.1        
Aug 10 02:35 Calm 10 Partly Cloudy FEW060 SCT065 SCT085 73 72     94%   75 30.1        
Aug 10 02:15 Calm 10 Cloudy BKN060 OVC070 73 72     94%   75 30.11        
Aug 10 01:55 Calm 10 Cloudy OVC060 73 72     94%   75 30.11        
Aug 10 01:35 Calm 10 Mostly Cloudy BKN055 73 72     94%   75 30.11        
Aug 10 01:15 Calm 10 Mostly Clear FEW060 73 72     94%   75 30.12        
Aug 10 00:55 Calm 10 Mostly Clear FEW055 73 72     94%   75 30.12        
Aug 10 00:35 Calm 10 Clear CLR 73 72     94%   75 30.12        
Aug 10 00:15 Calm 10 Clear CLR 73 72     94%   75 30.11        
Aug 09 23:55 Calm 10 Clear CLR 73 72     94%   75 30.11        
Aug 09 23:35 Calm 10 Mostly Clear FEW060 72 70     94%   73 30.12        
Aug 09 23:15 Calm 10 Clear CLR 73 72     94%   75 30.11        
Aug 09 22:55 Calm 10 Clear CLR 73 70     89%   75 30.12        
Aug 09 22:35 Calm 10 Clear CLR 73 70     89%   75 30.12        
Aug 09 22:15 S 7 10 Mostly Clear FEW070 73 70     89%   75 30.12        
Aug 09 21:55 E 5 10 Partly Cloudy FEW070 SCT095 73 70     89%   75 30.11        
Aug 09 21:35 ENE 5 10 Mostly Cloudy FEW032 SCT043 BKN095 75 72     89%   77 30.11        
Aug 09 21:15 NNW 6 10 Cloudy SCT032 BKN042 OVC075 75 72     89%   77 30.11        
Aug 09 20:55 N 9 10 Cloudy BKN031 OVC060 75 70     83%   76 30.11        
Aug 09 20:35   10 Cloudy OVC032 77 72     83%   78 30.11        
Aug 09 20:15 ENE 7 8 Light Drizzle FEW005 BKN031 OVC050 79 73     84%   82 30.09        
Aug 09 19:55 S 7 4 Light Rain FEW005 SCT023 BKN034 79 75     89%   82 30.08        
Aug 09 19:35 E 5 10 Cloudy BKN034 BKN040 OVC055 82 75     79%   89 30.08        
Aug 09 19:15 E 6 10 Mostly Cloudy BKN037 BKN046 BKN055 82 77     84%   91 30.06        
Aug 09 18:55 E 5 10 Partly Cloudy SCT037 84 77     79%   94 30.04        
Aug 09 18:35 E 5 10 Clear CLR 84 77     79%   94 30.03        
Aug 09 18:15 Calm 10 Clear CLR 84 77     79%   94 30.04        
Aug 09 17:55 Calm 10 Mostly Clear FEW050 86 75     70%   95 30.04        
Aug 09 17:35 WNW 5 10 Mostly Clear FEW050 86 73     66%   93 30.05        
Aug 09 17:15 WNW 5 10 Clear CLR 86 73     66%   93 30.06        
Aug 09 16:55 Calm 10 Clear CLR 88 72     59%   94 30.04        
Aug 09 16:35 Calm 10 Mostly Clear FEW041 90 72     56%   96 30.04        
Aug 09 16:15 Calm 10 Clear CLR 88 72     59%   94 30.04        
Aug 09 15:55 Calm 10 Partly Cloudy SCT042 SCT050 86 72     62%   92 30.03        
Aug 09 15:35 Calm 10 Cloudy OVC040 86 73     66%   93 30.04        
Aug 09 15:15 S 5 10 Mostly Cloudy FEW027 SCT032 BKN039 86 75     70%   95 30.04        
Aug 09 14:55 Calm 10 Mostly Cloudy SCT027 BKN033 BKN038 86 73     66%   93 30.05        
Aug 09 14:35 Calm 10 Mostly Clear FEW033 FEW048 86 75     70%   95 30.05        
Aug 09 14:15 6 10 Clear CLR 86 75     70%   95 30.06        
Aug 09 13:55 Calm 10 Mostly Clear FEW027 FEW033 86 75     70%   95 30.07        
Aug 09 13:35 Calm 10 Partly Cloudy FEW018 SCT028 SCT033 86 75     70%   95 30.08        
Aug 09 13:15 SE 5 10 Mostly Clear FEW015 84 75     74%   92 30.09        
Aug 09 12:55 Calm 10 Mostly Clear FEW013 82 75     79%   89 30.09        
Aug 09 12:35 Calm 10 Clear CLR 81 75     84%   86 30.1        
Aug 09 12:15 Calm 10 Clear CLR 81 75     84%   86 30.1        
Aug 09 11:55 Calm 10 Light Drizzle CLR 81 75     84%   86 30.11        
Aug 09 11:35 5 10 Light Rain CLR 79 75     89%   82 30.11        
Aug 09 11:15 SSE 5 10 Clear CLR 79 75     89%   82 30.11        
Aug 09 10:55 Calm 10 Light Drizzle FEW029 79 73     84%   82 30.11        
Aug 09 10:35 Calm 10 Mostly Clear FEW029 FEW035 79 73     84%   82 30.11        
Aug 09 10:15 ESE 5 10 Partly Cloudy FEW029 SCT035 79 73     84%   82 30.11        
Aug 09 09:55 ESE 5 10 Mostly Clear FEW006 77 73     89%   79 30.11        
Aug 09 09:35 Calm 10 Partly Cloudy FEW005 SCT028 SCT032 77 73     89%   79 30.1        
Aug 09 09:15 Calm 10 Light Drizzle FEW005 BKN030 75 73     94%   77 30.1        
Aug 09 08:55 ENE 3 10 Partly Cloudy FEW005 SCT029 75 73     94%   77 30.1        
Aug 09 08:35 Calm 10 Mostly Clear FEW004 75 73     94%   77 30.09        
Aug 09 08:15 E 3 10 Light Rain FEW004 SCT019 SCT032 75 72     89%   77 30.08        
Aug 09 07:55 E 3 10 Light Drizzle FEW004 BKN018 BKN033 73 72     94%   75 30.08        
Aug 09 07:35 E 3 10 Light Drizzle BKN003 OVC018 73 72     94%   75 30.08        
Aug 09 07:15 Calm 10 Light Drizzle OVC003 73 72     94%   75 30.08        
Aug 09 06:55 Calm 10 Light Drizzle OVC003 73 72     94%   75 30.07        
Aug 09 06:35 Calm 10 Cloudy OVC003 73 72     94%   75 30.07        
Aug 09 06:15 Calm 9 Cloudy OVC003 73 72     94%   75 30.07        
Aug 09 05:55 Calm 10 Cloudy BKN003 BKN024 OVC038 73 72     94%   75 30.06        
Aug 09 05:35 Calm 10 Cloudy SCT003 BKN019 OVC037 73 72     94%   75 30.06        
Aug 09 05:15 Calm 10 Cloudy BKN003 OVC019 73 72     94%   75 30.06        
Aug 09 04:55 Calm 10 Cloudy BKN003 OVC020 73 72     94%   75 30.06        
Aug 09 04:35 Calm 10 Clear   73 72     94%   75 30.05        
Aug 09 04:15 Calm 10 Clear   73 72     94%   75 30.05        
Aug 09 03:55 Calm 10 Clear   73 72     94%   75 30.05        
Aug 09 03:35 Calm 10 Cloudy BKN003 OVC022 73 72     94%   75 30.04        
Aug 09 03:15 Calm 9 Cloudy BKN002 OVC022 73 72     94%   75 30.04        
Aug 09 02:55 Calm 5 Fog/Mist OVC003 73 72     94%   75 30.03        
Aug 09 02:15 Calm 1.25 Fog/Mist OVC003 73 72     94%   75 30.03        
Aug 09 01:55 Calm 10 Cloudy OVC003 73 72     94%   75 30.03        
Aug 09 01:35 Calm 10 Mostly Cloudy BKN003 73 72     94%   75 30.03        
Aug 09 01:15 Calm 10 Mostly Clear FEW003 73 72     94%   75 30.03        
Aug 09 00:55 Calm 10 Clear CLR 73 72     94%   75 30.04        
Aug 09 00:35 NE 5 10 Partly Cloudy SCT008 73 72     94%   75 30.04        
Aug 09 00:15 Calm 10 Mostly Cloudy BKN008 73 72     94%   75 30.05        
Aug 08 23:55 NE 3 10 Partly Cloudy FEW004 SCT008 SCT020 73 73     100%   75 30.05        
Aug 08 23:35 Calm 10 Cloudy FEW004 BKN008 OVC020 73 73     100%   75 30.05        
Aug 08 23:15 Calm 10 Mostly Cloudy FEW004 SCT015 BKN031 73 73     100%   75 30.06        
Aug 08 22:55 Calm 10 Partly Cloudy SCT030 73 73     100%   75 30.05        
Aug 08 22:35 Calm 10 Cloudy FEW004 OVC030 73 73     100%   75 30.04        
Aug 08 22:15 Calm 10 Cloudy OVC032 73 72     94%   75 30.05        
Aug 08 21:55 Calm 10 Mostly Cloudy BKN033 73 72     94%   75 30.04        
Aug 08 21:35 Calm 10 Clear CLR 73 72     94%   75 30.03        
Aug 08 21:15 Calm 10 Mostly Clear FEW003 73 72     94%   75 30.02        
Aug 08 20:55 Calm 10 Clear CLR 73 72     94%   75 30        
Aug 08 20:35 Calm 10 Mostly Clear FEW065 FEW090 FEW110 73 72     94%   75 30        
Aug 08 20:15 Calm 10 Partly Cloudy FEW055 FEW065 SCT120 73 72     94%   75 29.99        
Aug 08 19:55 NE 3 10 Mostly Clear FEW110 75 72     89%   77 29.99        
Aug 08 19:35 Calm 10 Clear CLR 73 72     94%   75 30.01        
Aug 08 19:15 S 5 10 Clear CLR 75 72     89%   77 30.02        
Aug 08 18:55 SSW 5 10 Clear CLR 75 72     89%   77 30.02        
Aug 08 18:35 SSW 5 10 Clear CLR 75 72     89%   77 30.02        
Aug 08 18:15 Calm 8 Light Rain CLR 75 73     94%   77 30.01        
Aug 08 17:55 SSW 5 10 Light Drizzle FEW080 FEW090 73 72     94%   75 30.01        
Aug 08 17:35 SSE 3 10 Light Drizzle FEW004 SCT035 BKN075 73 72     94%   75 30.01        
Aug 08 17:15 Calm 2.5 Rain BKN004 BKN019 BKN027 73 72     94%   75 30.03        
Aug 08 16:55 Calm 0.5 Light Rain OVC004 73 72     94%   75 30.03        
Aug 08 16:35 N 9 0.5 Heavy Rain OVC003 73 72     94%   75 30.03        
Aug 08 16:15 NE 8 0.25 Heavy Rain OVC003 77 73     89%   79 30.01        
Aug 08 15:55 NNW 7 0.75 Fog/Mist BKN003 BKN012 OVC020 79 75     89%   82 30.01        
Aug 08 15:35 ENE 6 10 Cloudy SCT021 BKN027 OVC065 81 75     84%   86 29.98        
Aug 08 15:15 E 5 10 Mostly Cloudy SCT015 BKN022 BKN027 82 75     79%   89 30        
Aug 08 14:55 5 10 Mostly Cloudy BKN016 BKN022 82 75     79%   89 30        
Aug 08 14:15 3 10 Partly Cloudy SCT015 SCT023 SCT045 81 73     79%   85 30.02        
Aug 08 13:35 Calm 10 Mostly Cloudy SCT013 BKN020 BKN047 81 73     79%   85 30.03        
Aug 08 13:15 Calm 10 Mostly Cloudy SCT012 BKN050 81 75     84%   86 30.03        
Aug 08 12:55 Calm 10 Cloudy OVC050 79 73     84%   82 30.04        
Aug 08 12:35 Calm 10 Cloudy SCT044 OVC055 77 73     89%   79 30.05        
Aug 08 12:15 Calm 10 Mostly Cloudy FEW012 SCT022 BKN044 79 73     84%   82 30.05        
Aug 08 11:55 Calm 10 Cloudy BKN012 OVC018 79 73     84%   82 30.05        
Aug 08 11:35 Calm 10 Cloudy BKN011 OVC016 79 72     79%   82 30.05        
Aug 08 11:15 Calm 10 Mostly Cloudy FEW010 SCT014 BKN045 79 72     79%   82 30.05        
Aug 08 10:55 Calm 10 Mostly Cloudy SCT008 SCT013 BKN060 77 73     89%   79 30.05        
Aug 08 10:35 Calm 10 Cloudy BKN008 BKN012 OVC060 77 73     89%   79 30.05        
Aug 08 10:15 Calm 10 Mostly Cloudy SCT008 SCT012 BKN065 77 73     89%   79 30.05        
Aug 08 09:55 Calm 10 Partly Cloudy SCT007 77 73     89%   79 30.04        
Aug 08 09:35 Calm 10 Mostly Cloudy BKN006 77 73     89%   79 30.04        
Aug 08 09:15 Calm 10 Light Rain BKN007 75 73     94%   77 30.03        
Aug 08 08:55 Calm 10 Light Drizzle OVC005 75 72     89%   77 30.03        
Aug 08 08:35 Calm 10 Light Drizzle BKN005 BKN008 75 73     94%   77 30.03        
Aug 08 08:15 Calm 10 Light Drizzle BKN005 BKN009 75 73     94%   77 30.03        
Aug 08 07:55 Calm 10 Light Drizzle SCT004 BKN008 75 73     94%   77 30.03        
Aug 08 07:35 NW 3 10 Light Drizzle BKN008 BKN050 75 73     94%   77 30.02        
Aug 08 07:15 Calm 10 Light Drizzle OVC007 75 73     94%   77 30.02        
Aug 08 06:55 Calm 10 Mostly Cloudy BKN007 73 73     100%   75 30.01        
Aug 08 06:35 Calm 10 Mostly Cloudy BKN005 73 72     94%   75 30.01        
Aug 08 06:15 Calm 10 Cloudy BKN004 OVC009 73 73     100%   75 30        
Aug 08 05:55 Calm 10 Cloudy OVC008 73 73     100%   75 30        
Aug 08 05:35 Calm 10 Mostly Cloudy BKN008 73 72     94%   75 30        
Aug 08 05:15 Calm 10 Cloudy OVC008 73 72     94%   75 29.99        
Aug 08 04:55 Calm 10 Cloudy OVC007 73 72     94%   75 29.99        
Aug 08 04:35 SSE 3 6 Fog/Mist BKN007 73 72     94%   75 29.99        
Aug 08 04:15 Calm 10 Cloudy OVC006 73 72     94%   75 29.98        
Aug 08 03:55 Calm 10 Cloudy OVC005 73 72     94%   75 29.98        
Aug 08 03:35 Calm 9 Mostly Cloudy BKN005 73 72     94%   75 29.98        
Aug 08 03:15 Calm 10 Partly Cloudy SCT004 73 72     94%   75 29.98        
Aug 08 02:55 Calm 10 Light Drizzle FEW004 FEW046 SCT075 73 73     100%   75 29.98        
Aug 08 02:35 Calm 10 Mostly Clear FEW011 FEW048 FEW065 73 72     94%   75 29.98        
Aug 08 02:15 Calm 10 Mostly Clear FEW011 73 72     94%   75 29.98        
Aug 08 01:55 Calm 10 Clear CLR 73 72     94%   75 29.98        
Aug 08 01:35 Calm 10 Clear CLR 75 73     94%   77 29.98        
Aug 08 01:15 Calm 10 Clear CLR 75 73     94%   77 29.99        
Aug 08 00:55 Calm 10 Clear CLR 75 73     94%   77 29.99        
Aug 08 00:35 Calm 10 Clear CLR 75 73     94%   77 29.99        
Aug 08 00:15 Calm 10 Clear CLR 75 73     94%   77 30        
Aug 07 23:55 Calm 10 Clear CLR 75 73     94%   77 30        
Aug 07 23:35 Calm 10 Clear CLR 75 72     89%   77 30.01        
Aug 07 23:15 Calm 10 Clear CLR 75 73     94%   77 30.01        
Aug 07 22:55 Calm 10 Clear CLR 75 72     89%   77 30.01        
Aug 07 22:35 Calm 10 Clear CLR 75 72     89%   77 30.01        
Aug 07 22:15 Calm 10 Partly Cloudy FEW080 SCT110 75 72     89%   77 30.02        
Aug 07 21:55 Calm 10 Mostly Cloudy BKN120 75 72     89%   77 30.02        
Aug 07 21:35 SSW 5 10 Mostly Cloudy FEW060 BKN120 75 72     89%   77 30.02        
Aug 07 21:15 SW 5 10 Light Drizzle FEW036 SCT050 BKN110 75 72     89%   77 30.02        
Aug 07 20:55 SSW 5 10 Light Rain SCT034 SCT045 BKN085 75 73     94%   77 30.02        
Aug 07 20:35 S 6 10 Mostly Clear FEW065 FEW095 FEW120 75 73     94%   77 30.01        
Aug 07 20:15 Calm 10 Partly Cloudy SCT021 SCT041 SCT060 77 72     83%   78 30.01        
Aug 07 19:55 W 6 10 Cloudy BKN021 BKN026 OVC045 77 72     83%   78 30        
Aug 07 19:35 W 6 8 Light Drizzle FEW029 FEW037 OVC046 77 73     89%   79 30        
Aug 07 19:15 WSW 3 10 Cloudy FEW028 OVC048 77 73     89%   79 29.99        
Aug 07 18:55 ESE 7 5 Fog/Mist SCT025 BKN037 OVC085 77 73     89%   79 29.99        
Aug 07 18:35 Calm 10 Mostly Cloudy FEW024 SCT039 BKN049 81 73     79%   85 29.99        
Aug 07 18:15 NNW 14 10 Cloudy SCT048 OVC055 82 73     74%   88 29.95        
Aug 07 17:55 WNW 5 10 Mostly Cloudy BKN050 86 77     75%   97 29.96        
Aug 07 17:35 Calm 10 Partly Cloudy SCT050 86 79     79%   99 29.96        
Aug 07 17:15 Calm 10 Mostly Cloudy FEW025 SCT045 BKN050 82 77     84%   91 29.95        
Aug 07 16:55 6 2.5 Haze FEW003 FEW031 BKN046 84 73     70%   91 29.94        
Aug 07 16:35 WSW 6 10 Mostly Cloudy BKN044 BKN050 BKN070 90 72     56%   96 29.95        
Aug 07 16:15 SW 6 10 Partly Cloudy SCT045 SCT055 91 72     53%   99 29.95        
Aug 07 15:55 SSW 8 10 Partly Cloudy FEW045 SCT055 91 72     53%   99 29.94        
Aug 07 15:35 7 10 Partly Cloudy SCT044 91 73     56%   101 29.94        
Aug 07 15:15 SW 10 10 Mostly Clear FEW048 93 72     50%   101 29.95        
Aug 07 14:55 6 10 Mostly Cloudy SCT040 SCT048 BKN055 91 73     56%   101 29.95        
Aug 07 14:35 Calm 10 Mostly Cloudy SCT038 SCT049 BKN055 90 72     56%   96 29.96        
Aug 07 14:15 W 7 10 Mostly Clear FEW036 FEW045 91 75     59%   103 29.96        
Aug 07 13:55 6 10 Mostly Cloudy BKN034 BKN045 BKN050 90 75     63%   100 29.97        
Aug 07 13:35 5 10 Mostly Cloudy BKN035 BKN050 BKN055 88 73     62%   96 29.97        
Aug 07 13:15 SSW 5 10 Mostly Cloudy BKN036 BKN045 88 73     62%   96 29.98        
Aug 07 12:55 WNW 6 10 Partly Cloudy SCT033 SCT060 SCT075 88 73     62%   96 29.99        
Aug 07 12:35 NW 8 10 Light Drizzle BKN032 BKN037 BKN044 88 75     66%   98 30        
Aug 07 12:15 3 10 Mostly Cloudy SCT030 BKN038 86 73     66%   93 30.01        
Aug 07 11:55 SW 7 10 Partly Cloudy FEW030 SCT037 88 73     62%   96 30.01        
Aug 07 11:35 SSW 10 10 Partly Cloudy SCT029 SCT035 88 73     62%   96 30.02        
Aug 07 11:15 6 10 Partly Cloudy FEW031 SCT038 88 73     62%   96 30.03        
Aug 07 10:55 WSW 11 10 Clear CLR 86 73     66%   93 30.03        
Aug 07 10:35 SSW 9 10 Mostly Cloudy FEW019 SCT023 BKN041 86 75     70%   95 30.02        
Aug 07 10:15 SSW 11 10 Mostly Cloudy SCT018 BKN023 BKN029 86 75     70%   95 30.02        
Aug 07 09:55 SW 7 10 Partly Cloudy SCT016 SCT022 SCT027 84 75     74%   92 30.03        
Aug 07 09:35 WSW 10 10 Mostly Cloudy BKN014 BKN021 BKN028 82 75     79%   89 30.02        
Aug 07 09:15 WSW 7 10 Mostly Cloudy BKN012 BKN019 82 77     84%   91 30.03        
Aug 07 08:55 WSW 7 10 Mostly Cloudy BKN012 81 75     84%   86 30.02        
Aug 07 08:35 SSW 6 10 Partly Cloudy SCT012 81 77     89%   87 30.02        
Aug 07 08:15 SSW 7 10 Mostly Clear FEW009 FEW013 81 77     89%   87 30.01        
Aug 07 07:55 5 10 Mostly Cloudy FEW008 BKN018 81 75     84%   86 30.02        
Aug 07 07:35 S 5 10 Cloudy FEW007 OVC016 79 75     89%   82 30.01        
Aug 07 07:15 S 6 10 Cloudy FEW007 BKN013 OVC110 77 75     94%   79 30.01        
Aug 07 06:55 S 6 10 Mostly Cloudy BKN010 BKN014 77 75     94%   79 30        
Aug 07 06:35 S 6 10 Mostly Cloudy FEW007 BKN013 77 75     94%   79 30        
Aug 07 06:15 S 8 10 Cloudy BKN013 BKN085 OVC110 77 75     94%   79 30        
Aug 07 05:55 S 8 10 Cloudy BKN011 OVC085 77 75     94%   79 30        
Aug 07 05:35 SSW 7 10 Cloudy OVC010 77 75     94%   79 30.01        
Aug 07 05:15 SSW 6 10 Cloudy BKN010 BKN070 OVC100 77 75     94%   79 30.01        
Aug 07 04:55 S 6 10 Cloudy BKN009 BKN012 OVC100 77 75     94%   79 30        
Aug 07 04:35 S 6 10 Cloudy OVC008 77 75     94%   79 30        
Aug 07 04:15 S 7 10 Cloudy OVC008 77 75     94%   79 30        
Aug 07 03:55 SSW 6 10 Cloudy OVC007 77 73     89%   79 30        
Aug 07 03:35 SSW 6 10 Cloudy OVC007 77 73     89%   79 30        
Aug 07 03:15 S 9 10 Cloudy OVC007 77 75     94%   79 30        
Aug 07 02:55 S 9 10 Cloudy OVC006 77 75     94%   79 30        
Aug 07 02:35 S 8 10 Cloudy OVC006 77 73     89%   79 30        
Aug 07 02:15 S 7 10 Cloudy OVC006 75 73     94%   77 30        
Aug 07 01:55 S 6 10 Cloudy BKN007 OVC065 75 73     94%   77 30.01        
Aug 07 01:35 Calm 10 Partly Cloudy SCT060 73 72     94%   75 30.01        
Aug 07 01:15 SE 5 10 Clear CLR 73 72     94%   75 30.01        
Aug 07 00:55 SE 3 10 Clear CLR 75 73     94%   77 30.01        
Aug 07 00:35 Calm 10 Clear CLR 73 72     94%   75 30.01        
Aug 07 00:15 SE 5 10 Clear CLR 75 73     94%   77 30.01        
Aug 06 23:55 Calm 10 Mostly Clear FEW060 75 73     94%   77 30.01        
Aug 06 23:35 Calm 10 Clear CLR 75 73     94%   77 30.01        
Aug 06 23:15 SSE 6 10 Partly Cloudy SCT110 75 73     94%   77 30.01        
Aug 06 22:55 SE 5 10 Mostly Cloudy BKN110 77 73     89%   79 30.01        
Aug 06 22:35 ESE 6 10 Cloudy FEW075 OVC100 77 75     94%   79 30.02        
Aug 06 22:15 Calm 10 Mostly Cloudy FEW020 SCT060 BKN080 77 75     94%   79 30.02        
Aug 06 21:55 Calm 9 Cloudy FEW013 BKN028 OVC100 77 75     94%   79 30.02        
Aug 06 21:35 Calm 10 Cloudy FEW049 FEW060 OVC095 77 75     94%   79 30.02        
Aug 06 21:15 SSE 5 10 Cloudy FEW045 SCT080 OVC095 77 73     89%   79 30        
Aug 06 20:55 SE 3 10 Mostly Cloudy FEW044 SCT050 BKN075 77 73     89%   79 29.99        
Aug 06 20:35 Calm 10 Mostly Cloudy FEW048 FEW060 BKN080 77 75     94%   79 29.99        
Aug 06 20:15 Calm 10 Partly Cloudy FEW080 SCT095 77 75     94%   79 29.98        
Aug 06 19:55 Calm 10 Cloudy OVC085 77 75     94%   79 29.97        
Aug 06 19:35 SE 6 10 Cloudy SCT070 OVC090 77 75     94%   79 29.97        
Aug 06 19:15 Calm 10 Mostly Cloudy SCT070 BKN095 79 75     89%   82 29.97        
Aug 06 18:55 SE 3 10 Clear CLR 79 75     89%   82 29.97        
Aug 06 18:35 SE 5 10 Clear CLR 79 75     89%   82 29.97        
Aug 06 18:15 ESE 6 10 Clear CLR 79 75     89%   82 29.96        
Aug 06 17:55 ESE 6 10 Clear CLR 79 75     89%   82 29.97        
Aug 06 17:35 ESE 5 10 Clear CLR 79 75     89%   82 29.97        
Aug 06 17:15 Calm 10 Clear CLR 79 75     89%   82 29.98        
Aug 06 16:55 Calm 10 Clear CLR 77 73     89%   79 29.98        
Aug 06 16:35 Calm 10 Light Drizzle CLR 77 73     89%   79 29.98        
Aug 06 16:15 WSW 3 10 Rain FEW003 FEW026 FEW033 77 73     89%   79 29.99        
Aug 06 15:55 Calm 1.25 Heavy Rain SCT003 SCT027 BKN055 77 73     89%   79 30        
Aug 06 15:35 S 7 10 Mostly Cloudy FEW038 BKN047 BKN055 79 73     84%   82 30        
Aug 06 15:15 SSE 7 10 Partly Cloudy SCT038 SCT070 79 73     84%   82 30.01        
Aug 06 14:55 S 6 10 Partly Cloudy FEW040 FEW070 SCT085 77 73     89%   79 30        
Aug 06 14:35 S 5 10 Mostly Cloudy FEW033 SCT046 BKN085 77 73     89%   79 30        
Aug 06 14:15 S 11 5 Heavy Rain FEW027 SCT034 BKN065 81 72     74%   85 30        
Aug 06 13:55 6 10 Clear CLR 88 75     66%   98 29.99        
Aug 06 13:35 SSE 7 10 Mostly Clear FEW041 FEW070 84 75     74%   92 29.99        
Aug 06 13:15 WSW 6 6 Heavy Rain FEW037 FEW043 FEW049 81 73     79%   85 30        
Aug 06 12:55 SSW 14 10 Partly Cloudy FEW036 SCT042 SCT048 90 73     59%   98 30        
Aug 06 12:35 SSW 9 10 Partly Cloudy SCT035 SCT042 SCT047 88 73     62%   96 30.01        
Aug 06 12:15 SSE 13 10 Partly Cloudy FEW034 FEW042 SCT048 88 72     59%   94 30.02        
Aug 06 11:55 S 7 10 Mostly Cloudy FEW032 SCT039 BKN090 86 72     62%   92 30.02        
Aug 06 11:35 6 10 Mostly Cloudy FEW028 SCT033 BKN090 88 73     62%   96 30.03        
Aug 06 11:15 S 6 10 Partly Cloudy FEW027 FEW034 SCT075 86 73     66%   93 30.03        
Aug 06 10:55 S 8 10 Partly Cloudy FEW027 FEW034 SCT070 86 73     66%   93 30.03        
Aug 06 10:35 S 9 10 Mostly Cloudy FEW025 BKN070 86 73     66%   93 30.03        
Aug 06 10:15 S 8 10 Mostly Cloudy FEW020 FEW026 BKN065 86 73     66%   93 30.03        
Aug 06 09:55 SSW 6 10 Partly Cloudy FEW020 FEW065 SCT095 84 75     74%   92 30.03        
Aug 06 09:35 S 10 10 Mostly Cloudy FEW060 FEW080 BKN095 82 75     79%   89 30.03        
Aug 06 09:15 SSW 9 10 Mostly Cloudy SCT013 BKN090 82 75     79%   89 30.03        
Aug 06 08:55 SE 6 10 Mostly Cloudy FEW008 FEW012 BKN080 81 75     84%   86 30.03        
Aug 06 08:35 SSE 5 10 Mostly Cloudy FEW006 BKN080 79 75     89%   82 30.04        
Aug 06 08:15 SE 5 10 Cloudy FEW005 SCT070 OVC080 77 73     89%   79 30.05        
Aug 06 07:55 SE 3 10 Cloudy SCT006 OVC075 75 73     94%   77 30.05        
Aug 06 07:35 Calm 10 Cloudy BKN065 BKN075 OVC080 75 73     94%   77 30.05        
Aug 06 07:15 Calm 10 Cloudy BKN060 OVC080 75 73     94%   77 30.04        
Aug 06 06:55 Calm 10 Mostly Cloudy FEW055 BKN080 75 72     89%   77 30.04        
Aug 06 06:35 Calm 10 Clear CLR 73 72     94%   75 30.04        
Aug 06 06:15 Calm 9 Clear CLR 73 72     94%   75 30.03        
Aug 06 05:55 Calm 9 Clear CLR 72 70     94%   73 30.03        
Aug 06 05:35 SSE 3 10 Clear CLR 72 70     94%   73 30.02        
Aug 06 05:15 SE 7 10 Clear CLR 72 70     94%   73 30.02        
Aug 06 04:55 S 5 10 Clear CLR 72 70     94%   73 30.02        
Aug 06 04:35 SSE 5 9 Clear CLR 73 72     94%   75 30.02        
Aug 06 04:15 Calm 10 Clear CLR 73 72     94%   75 30.01        
Aug 06 03:55 Calm 10 Clear CLR 73 72     94%   75 30.01        
Aug 06 03:35 SE 3 10 Clear CLR 72 70     94%   73 30        
Aug 06 03:15 ESE 5 10 Clear CLR 73 72     94%   75 30        
Aug 06 02:55 Calm 10 Clear CLR 73 72     94%   75 30        
Aug 06 02:35 Calm 10 Clear CLR 75 73     94%   77 30        
Aug 06 02:15 Calm 10 Clear CLR 73 72     94%   75 30        
Aug 06 01:55 Calm 10 Clear CLR 73 72     94%   75 29.99        
Aug 06 01:35 Calm 10 Clear CLR 75 72     89%   77 29.99        
Aug 06 01:15 Calm 10 Clear CLR 75 72     89%   77 29.99        
Aug 06 00:55 Calm 10 Clear CLR 73 72     94%   75 29.99        
Aug 06 00:35 SSE 3 10 Clear CLR 75 72     89%   77 30        
Aug 06 00:15 Calm 10 Clear CLR 75 72     89%   77 30        
Aug 05 23:55 S 3 10 Clear CLR 75 72     89%   77 30        
Aug 05 23:35 Calm 10 Clear CLR 77 73     89%   79 30.01        
Aug 05 23:15 Calm 10 Clear CLR 77 73     89%   79 30.01        
Aug 05 22:55 SSE 5 10 Clear CLR 77 73     89%   79 30.01        
Aug 05 22:35 SSE 5 10 Clear CLR 77 73     89%   79 30.02        
Aug 05 22:15 S 6 10 Clear CLR 77 73     89%   79 30.02        
Aug 05 21:55 SSE 5 10 Clear CLR 77 73     89%   79 30.02        
Aug 05 21:35 S 5 10 Clear CLR 79 73     84%   82 30.02        
Aug 05 21:15 S 5 10 Clear CLR 79 73     84%   82 30.02        
Aug 05 20:55 S 3 10 Clear CLR 77 73     89%   79 30.02        
Aug 05 20:35 Calm 10 Clear CLR 79 75     89%   82 30.01        
Aug 05 20:15 Calm 10 Clear CLR 81 75     84%   86 30.01        
Aug 05 19:55 S 5 10 Clear CLR 81 75     84%   86 30.01        
Aug 05 19:35 SSW 5 10 Clear CLR 82 73     74%   88 30.01        
Aug 05 19:15 SW 3 10 Clear CLR 84 73     70%   91 30        
Aug 05 18:55 SSW 5 10 Clear CLR 86 73     66%   93 29.99        
Aug 05 18:35 SSW 6 10 Clear CLR 88 73     62%   96 29.99        
Aug 05 18:15 SSW 7 10 Clear CLR 88 73     62%   96 30        
Aug 05 17:55 SSW 6 10 Clear CLR 90 72     56%   96 30        
Aug 05 17:35 SSW 7 10 Clear CLR 90 70     52%   95 30        
Aug 05 17:15 Calm 10 Clear CLR 91 68     46%   96 30        
Aug 05 16:55 SSW 5 10 Clear CLR 90 70     52%   95 30        
Aug 05 16:35 W 5 10 Clear CLR 91 70     49%   97 30        
Aug 05 16:15 5 10 Clear CLR 91 70     49%   97 30        
Aug 05 15:55 6 10 Clear CLR 91 70     49%   97 30        
Aug 05 15:35 3 10 Mostly Clear FEW050 FEW070 FEW080 90 72     56%   96 30.01        
Aug 05 15:15 SE 5 10 Mostly Cloudy FEW040 SCT050 BKN070 90 72     56%   96 30.01        
Aug 05 14:55 SE 6 10 Mostly Cloudy SCT039 SCT055 BKN095 88 72     59%   94 30.02        
Aug 05 13:35 Calm 10 Partly Cloudy FEW036 SCT060 SCT070 88 72     59%   94 30.04        
Aug 05 13:15 Calm 10 Mostly Cloudy FEW035 SCT042 BKN055 88 72     59%   94 30.05        
Aug 05 12:55 SSW 6 10 Mostly Cloudy BKN035 BKN042 BKN050 88 72     59%   94 30.05        
Aug 05 12:35 Calm 10 Mostly Cloudy SCT034 BKN046 88 72     59%   94 30.06        
Aug 05 12:15 E 5 10 Mostly Cloudy SCT029 BKN037 88 72     59%   94 30.06        
Aug 05 11:55 Calm 10 Mostly Cloudy SCT027 SCT036 BKN042 86 72     62%   92 30.06        
Aug 05 11:35 ENE 3 10 Mostly Clear FEW042 84 73     70%   91 30.06        
Aug 05 11:15 SE 3 10 Mostly Clear FEW025 FEW030 86 73     66%   93 30.06        
Aug 05 10:55 Calm 10 Mostly Clear FEW023 86 72     62%   92 30.07        
Aug 05 10:35 Calm 10 Clear CLR 84 73     70%   91 30.07        
Aug 05 10:15 Calm 10 Clear CLR 84 73     70%   91 30.07        
Aug 05 09:55 Calm 10 Clear CLR 82 72     70%   87 30.07        
Aug 05 09:35 Calm 10 Clear CLR 82 72     70%   87 30.07        
Aug 05 09:15 Calm 10 Clear CLR 81 72     74%   85 30.08        
Aug 05 08:55 3 10 Clear CLR 79 72     79%   82 30.08        
Aug 05 08:35 Calm 10 Clear CLR 79 72     79%   82 30.07        
Aug 05 08:15 Calm 10 Mostly Clear FEW008 79 72     79%   82 30.07        
Aug 05 07:55 Calm 10 Mostly Cloudy BKN007 77 72     83%   78 30.06        
Aug 05 07:35 Calm 10 Mostly Cloudy BKN006 75 73     94%   77 30.06        
Aug 05 07:15 WNW 3 9 Cloudy OVC004 75 73     94%   77 30.05        
Aug 05 06:55 NW 6 9 Cloudy OVC003 75 73     94%   77 30.04        
Aug 05 06:35 Calm 7 Cloudy OVC003 75 73     94%   77 30.03        
Aug 05 06:15 Calm 2 Fog/Mist OVC003 75 73     94%   77 30.03        
Aug 05 05:55 NW 5 9 Cloudy OVC003 75 73     94%   77 30.02        
Aug 05 05:35 Calm 10 Cloudy OVC003 75 73     94%   77 30.02        
Aug 05 05:15 Calm 5 Fog/Mist OVC003 75 73     94%   77 30.02        
Aug 05 04:55 SW 3 3 Fog/Mist OVC003 75 73     94%   77 30.02        
Aug 05 04:35 Calm 10 Cloudy OVC003 75 73     94%   77 30.02        
Aug 05 04:15 Calm 10 Cloudy OVC003 73 72     94%   75 30.01        
Aug 05 03:55 Calm 10 Mostly Cloudy BKN003 73 72     94%   75 30.01        
Aug 05 03:35 Calm 10 Cloudy OVC003 73 72     94%   75 30.01        
Aug 05 03:15 Calm 10 Partly Cloudy SCT003 73 72     94%   75 30.01        
Aug 05 02:55 Calm 10 Clear CLR 73 72     94%   75 30.01        
Aug 05 02:35 Calm 10 Clear CLR 73 72     94%   75 30.01        
Aug 05 02:15 Calm 10 Clear CLR 73 72     94%   75 30.01        
Aug 05 01:55 SSE 5 10 Clear CLR 73 72     94%   75 30.01        
Aug 05 01:35 SSE 3 10 Clear CLR 73 72     94%   75 30.01        
Aug 05 01:15 Calm 10 Clear CLR 73 72     94%   75 30.01        
Aug 05 00:55 Calm 10 Clear CLR 73 72     94%   75 30.01        
Aug 05 00:35 Calm 10 Clear CLR 73 72     94%   75 30.01        
Aug 05 00:15 Calm 10 Clear CLR 73 72     94%   75 30.01        
Aug 04 23:55 Calm 10 Clear CLR 75 72     89%   77 30.01        
Aug 04 23:35 Calm 10 Clear CLR 75 73     94%   77 30.01        
Aug 04 23:15 Calm 10 Clear CLR 75 73     94%   77 30.01        
Aug 04 22:55 Calm 10 Clear CLR 75 73     94%   77 30.01        
Aug 04 22:35 Calm 10 Mostly Clear FEW042 75 73     94%   77 30.02        
Aug 04 22:15 SW 3 10 Mostly Cloudy BKN042 75 73     94%   77 30.03        
Aug 04 21:55 Calm 10 Mostly Clear FEW044 77 73     89%   79 30.02        
Aug 04 21:35 S 6 10 Clear CLR 77 73     89%   79 30.01        
Aug 04 21:15 S 6 10 Clear CLR 77 73     89%   79 30        
Aug 04 20:55 S 5 10 Clear CLR 77 73     89%   79 30        
Aug 04 20:35 S 6 10 Clear CLR 79 73     84%   82 30        
Aug 04 20:15 SSW 6 10 Clear CLR 79 73     84%   82 29.99        
Aug 04 19:55 SSW 6 10 Clear CLR 81 73     79%   85 29.99        
Aug 04 19:35 S 6 10 Clear CLR 81 73     79%   85 30        
Aug 04 19:15 S 6 10 Clear CLR 82 73     74%   88 29.99        
Aug 04 18:55 S 7 10 Clear CLR 84 73     70%   91 29.99        
Aug 04 18:35 S 7 10 Clear CLR 86 73     66%   93 29.99        
Aug 04 18:15 SSW 8 10 Mostly Clear FEW075 86 73     66%   93 29.99        
Aug 04 17:55 SSW 10 10 Partly Cloudy FEW031 FEW037 SCT075 86 73     66%   93 29.98        
Aug 04 17:35 SSE 9 10 Partly Cloudy FEW028 SCT035 88 73     62%   96 29.98        
Aug 04 17:15 S 7 10 Partly Cloudy SCT070 88 73     62%   96 29.98        
Aug 04 16:55 SSE 9 10 Partly Cloudy SCT070 88 73     62%   96 29.98        
Aug 04 16:35 S 8 10 Clear CLR 86 72     62%   92 29.97        
Aug 04 16:15 Calm 10 Clear CLR 86 70     59%   91 29.97        
Aug 04 15:55 SSE 6 10 Mostly Clear FEW050 FEW060 90 70     52%   95 29.98        
Aug 04 15:35 SE 6 10 Mostly Cloudy SCT046 BKN055 90 70     52%   95 29.98        
Aug 04 15:15 5 10 Mostly Clear FEW043 90 68     49%   93 29.98        
Aug 04 14:55 N 5 10 Partly Cloudy SCT043 SCT050 88 68     52%   91 29.99        
Aug 04 14:35 3 10 Mostly Clear FEW050 90 68     49%   93 30        
Aug 04 14:15 5 10 Clear CLR 88 68     52%   91 30        
Aug 04 13:55 Calm 10 Partly Cloudy SCT035 SCT040 86 70     59%   91 30.01        
Aug 04 13:35 E 6 10 Partly Cloudy SCT034 88 70     55%   93 30.02        
Aug 04 13:15 3 10 Mostly Clear FEW034 FEW048 86 70     59%   91 30.02        
Aug 04 11:35 3 10 Mostly Cloudy SCT026 BKN032 BKN038 82 70     66%   86 30.06        
Aug 04 11:15 Calm 10 Mostly Cloudy SCT023 BKN028 BKN034 82 70     66%   86 30.07        
Aug 04 10:55 WNW 5 10 Mostly Cloudy BKN022 81 72     74%   85 30.07        
Aug 04 10:35 Calm 10 Mostly Clear FEW019 81 70     70%   84 30.06        
Aug 04 10:15 Calm 10 Mostly Cloudy BKN017 81 72     74%   85 30.06        
Aug 04 09:55 Calm 10 Mostly Cloudy SCT016 BKN080 81 72     74%   85 30.06        
Aug 04 09:35 Calm 10 Cloudy OVC080 79 70     74%   80 30.06        
Aug 04 09:15 Calm 10 Cloudy FEW012 OVC080 77 72     83%   78 30.06        
Aug 04 08:55 Calm 10 Cloudy SCT010 OVC080 77 72     83%   78 30.07        
Aug 04 08:35 Calm 10 Cloudy FEW009 OVC080 75 72     89%   77 30.07        
Aug 04 08:15 Calm 10 Cloudy SCT050 OVC080 75 72     89%   77 30.08        
Aug 04 07:55 Calm 10 Cloudy FEW006 BKN050 OVC080 75 72     89%   77 30.08        
Aug 04 07:35 Calm 10 Cloudy BKN050 OVC080 75 72     89%   77 30.07        
Aug 04 07:15 Calm 10 Cloudy SCT050 OVC080 73 72     94%   75 30.07        
Aug 04 06:55 Calm 10 Cloudy OVC080 73 72     94%   75 30.06        
Aug 04 06:35 Calm 10 Cloudy OVC080 73 72     94%   75 30.06        
Aug 04 06:15 Calm 10 Mostly Cloudy SCT055 BKN080 73 72     94%   75 30.05        
Aug 04 05:55 Calm 10 Cloudy FEW021 OVC055 73 72     94%   75 30.04        
Aug 04 05:35 Calm 10 Cloudy BKN020 OVC055 73 72     94%   75 30.05        
Aug 04 05:15 SW 3 10 Cloudy FEW008 SCT013 OVC020 73 72     94%   75 30.04        
Aug 04 04:55 Calm 10 Cloudy SCT007 OVC013 73 72     94%   75 30.04        
Jun 12 07:35 ESE 6 10 Clear CLR 77 72     83%   78 30.14        
Jun 11 21:15 Calm 10 Clear   77 73     89%   79 30.1        
Notice The following observation data may not be complete
Jun 11 20:35   10 Cloudy FEW055 OVC065          %              
Jun 11 17:35 SSE 6 10 Light Rain SCT032 BKN050 BKN065 73 70     89%   75 30.05        
Notice The following observation data may not be complete
Jun 11 17:15 SE 14 3 Clear     70      %     30.07        
Jun 11 14:55 E 9 10 Mostly Clear FEW047 FEW060 91 68     46%   96 30.07        
Jun 11 02:35 Calm 10 Mostly Clear FEW055 68 64     88%     30.05        
Jun 10 23:35 Calm 10 Clear CLR 70 64     83%     30.06        
Jun 10 12:55 SE 9 10 Mostly Cloudy FEW055 BKN080 86 59     40%   85 30.06        
Jun 09 22:55 Calm 10 Mostly Cloudy BKN060 BKN070 68 64     88%     29.98        
Jun 09 16:35 W 8 10 Clear CLR 86 57     38%   85 29.92        
Notice The following observation data may not be complete
Jun 09 12:35   10 Partly Cloudy SCT055          %              
Jun 08 08:35 Calm 10 Clear CLR 70 59     69%     29.92        
Jun 07 22:15 N 7 10 Mostly Cloudy BKN070 BKN080 73 57     57%   73 29.85        
Jun 07 20:15 NNE 5 10 Mostly Cloudy BKN060 BKN070 77 63     61%   77 29.81        
Jun 07 19:15 NNE 10 10 Mostly Clear FEW080 81 59     48%   81 29.8        
Notice The following observation data may not be complete
Jun 07 14:35   10 Mostly Clear FEW050 FEW055          %              
Jun 07 12:35 N 11 10 Mostly Cloudy BKN037 82 66     58%   85 29.77        
Jun 07 11:55 N 8 10 Partly Cloudy SCT032 SCT037 82 66     58%   85 29.77        
Jun 07 09:35 NNE 8 10 Clear CLR 77 64     65%   77 29.78        
Notice The following observation data may not be complete
Jun 06 09:15   10 Cloudy OVC005          %              
Jun 05 20:15 E 7 10 Cloudy BKN004 BKN080 OVC090 73 72     94%   75 29.79